Time,TemperatureF,DewpointF,PressureIn,WindDirection,WindDirectionDegrees,WindSpeedMPH,WindSpeedGustMPH,Humidity,HourlyPrecipIn,Conditions,Clouds,dailyrainin,SoftwareType,DateUTC
2013-06-08 00:00:00,66.6,62.0,25.46,NE,37,0.0,0.0,85,0.00,,SKC,0.01,VWS V14.01,2013-06-08 05:00:00,
2013-06-08 00:06:00,66.3,61.7,25.46,NE,37,0.0,0.0,85,0.00,,SKC,0.00,VWS V14.01,2013-06-08 05:06:00,
2013-06-08 00:12:00,66.5,61.2,25.46,NE,37,0.0,1.0,83,0.00,,SKC,0.00,VWS V14.01,2013-06-08 05:12:00,
2013-06-08 00:18:00,66.3,60.3,25.46,NE,37,0.0,1.0,81,0.00,,SKC,0.00,VWS V14.01,2013-06-08 05:18:00,
2013-06-08 00:24:00,66.5,60.2,25.46,NE,37,0.0,1.0,80,0.00,,SKC,0.00,VWS V14.01,2013-06-08 05:24:00,
2013-06-08 00:30:00,66.7,60.7,25.46,NE,37,0.0,1.0,81,0.00,,SKC,0.00,VWS V14.01,2013-06-08 05:30:00,
2013-06-08 00:37:00,66.5,59.8,25.46,NE,37,0.0,1.0,79,0.00,,SKC,0.00,VWS V14.01,2013-06-08 05:37:00,
2013-06-08 00:43:00,66.6,59.5,25.46,ENE,76,3.0,3.0,78,0.00,,SKC,0.00,VWS V14.01,2013-06-08 05:43:00,
2013-06-08 00:49:00,67.0,59.2,25.46,ENE,76,0.0,3.0,76,0.00,,SKC,0.00,VWS V14.01,2013-06-08 05:49:00,
2013-06-08 00:55:00,67.3,59.1,25.46,ENE,76,0.0,3.0,75,0.00,,SKC,0.00,VWS V14.01,2013-06-08 05:55:00,
2013-06-08 01:00:00,67.4,59.2,25.46,ENE,76,0.0,3.0,75,0.00,,SKC,0.00,VWS V14.01,2013-06-08 06:00:00,
2013-06-08 01:01:00,67.3,59.1,25.46,ENE,76,1.0,3.0,75,0.00,,SKC,0.00,VWS V14.01,2013-06-08 06:01:00,
2013-06-08 01:07:00,67.5,58.9,25.46,ENE,76,1.0,3.0,74,0.00,,SKC,0.00,VWS V14.01,2013-06-08 06:07:00,
2013-06-08 01:13:00,67.7,60.2,25.46,ENE,76,0.0,3.0,77,0.00,,SKC,0.00,VWS V14.01,2013-06-08 06:13:00,
2013-06-08 01:19:00,67.4,60.7,25.46,ENE,76,0.0,3.0,79,0.00,,SKC,0.00,VWS V14.01,2013-06-08 06:19:00,
2013-06-08 01:25:00,66.7,60.3,25.46,ENE,76,0.0,3.0,80,0.00,,SKC,0.00,VWS V14.01,2013-06-08 06:25:00,
2013-06-08 01:30:00,65.9,59.6,25.46,ENE,76,0.0,3.0,80,0.00,,SKC,0.00,VWS V14.01,2013-06-08 06:30:00,
2013-06-08 01:31:00,66.0,59.7,25.46,ENE,76,0.0,3.0,80,0.00,,SKC,0.00,VWS V14.01,2013-06-08 06:31:00,
2013-06-08 01:37:00,65.8,60.2,25.46,ENE,76,0.0,0.0,82,0.00,,SKC,0.00,VWS V14.01,2013-06-08 06:37:00,
2013-06-08 01:43:00,65.6,60.3,25.46,ENE,76,0.0,0.0,83,0.00,,SKC,0.00,VWS V14.01,2013-06-08 06:43:00,
2013-06-08 01:49:00,65.1,59.8,25.46,ENE,76,0.0,0.0,83,0.00,,SKC,0.00,VWS V14.01,2013-06-08 06:49:00,
2013-06-08 01:55:00,64.8,59.9,25.46,ENE,76,0.0,0.0,84,0.00,,SKC,0.00,VWS V14.01,2013-06-08 06:55:00,
2013-06-08 02:00:00,64.4,59.8,25.46,ENE,76,0.0,0.0,85,0.00,,SKC,0.00,VWS V14.01,2013-06-08 07:00:00,
2013-06-08 02:01:00,64.5,59.9,25.46,ENE,76,0.0,0.0,85,0.00,,SKC,0.00,VWS V14.01,2013-06-08 07:01:00,
2013-06-08 02:07:00,64.0,59.1,25.46,ENE,76,0.0,0.0,84,0.00,,SKC,0.00,VWS V14.01,2013-06-08 07:07:00,
2013-06-08 02:13:00,64.1,59.5,25.46,ENE,76,0.0,0.0,85,0.00,,SKC,0.00,VWS V14.01,2013-06-08 07:13:00,
2013-06-08 02:19:00,64.1,59.5,25.46,ENE,76,0.0,0.0,85,0.00,,SKC,0.00,VWS V14.01,2013-06-08 07:19:00,
2013-06-08 02:25:00,63.9,59.6,25.46,ENE,76,0.0,0.0,86,0.00,,SKC,0.00,VWS V14.01,2013-06-08 07:25:00,
2013-06-08 02:30:00,63.8,59.5,25.46,ENE,76,0.0,0.0,86,0.00,,SKC,0.00,VWS V14.01,2013-06-08 07:30:00,
2013-06-08 02:31:00,63.8,59.5,25.46,ENE,76,0.0,0.0,86,0.00,,SKC,0.00,VWS V14.01,2013-06-08 07:31:00,
2013-06-08 02:37:00,63.7,59.8,25.46,ENE,76,0.0,0.0,87,0.00,,SKC,0.00,VWS V14.01,2013-06-08 07:37:00,
2013-06-08 02:43:00,63.8,59.9,25.46,ENE,76,0.0,0.0,87,0.00,,SKC,0.00,VWS V14.01,2013-06-08 07:43:00,
2013-06-08 02:49:00,63.6,60.0,25.46,ENE,76,0.0,0.0,88,0.00,,SKC,0.00,VWS V14.01,2013-06-08 07:49:00,
2013-06-08 02:55:00,63.5,59.9,25.46,ENE,76,0.0,0.0,88,0.00,,SKC,0.00,VWS V14.01,2013-06-08 07:55:00,
2013-06-08 03:00:00,63.4,60.1,25.46,ENE,76,0.0,0.0,89,0.00,,SKC,0.00,VWS V14.01,2013-06-08 08:00:00,
2013-06-08 03:01:00,63.4,60.1,25.46,ENE,76,0.0,0.0,89,0.00,,SKC,0.00,VWS V14.01,2013-06-08 08:01:00,
2013-06-08 03:07:00,63.4,60.1,25.46,ENE,76,0.0,0.0,89,0.00,,SKC,0.00,VWS V14.01,2013-06-08 08:07:00,
2013-06-08 03:13:00,63.1,59.8,25.46,ENE,76,0.0,0.0,89,0.00,,SKC,0.00,VWS V14.01,2013-06-08 08:13:00,
2013-06-08 03:19:00,62.9,59.6,25.46,ENE,76,0.0,0.0,89,0.00,,SKC,0.00,VWS V14.01,2013-06-08 08:19:00,
2013-06-08 03:25:00,62.7,59.4,25.46,ENE,76,0.0,0.0,89,0.00,,SKC,0.00,VWS V14.01,2013-06-08 08:25:00,
2013-06-08 03:30:00,62.7,59.7,25.46,ENE,76,0.0,0.0,90,0.00,,SKC,0.00,VWS V14.01,2013-06-08 08:30:00,
2013-06-08 03:31:00,62.7,59.7,25.46,ENE,76,0.0,0.0,90,0.00,,SKC,0.00,VWS V14.01,2013-06-08 08:31:00,
2013-06-08 03:37:00,62.9,59.9,25.46,ENE,76,0.0,0.0,90,0.00,,SKC,0.00,VWS V14.01,2013-06-08 08:37:00,
2013-06-08 03:43:00,62.7,59.7,25.46,ENE,76,0.0,0.0,90,0.00,,SKC,0.00,VWS V14.01,2013-06-08 08:43:00,
2013-06-08 03:49:00,62.4,59.4,25.46,ENE,76,0.0,0.0,90,0.00,,SKC,0.00,VWS V14.01,2013-06-08 08:49:00,
2013-06-08 03:55:00,62.5,59.5,25.46,ENE,76,0.0,0.0,90,0.00,,SKC,0.00,VWS V14.01,2013-06-08 08:55:00,
2013-06-08 04:00:00,62.3,59.3,25.46,ENE,76,0.0,0.0,90,0.00,,SKC,0.00,VWS V14.01,2013-06-08 09:00:00,
2013-06-08 04:01:00,62.4,59.4,25.46,ENE,76,0.0,0.0,90,0.00,,SKC,0.00,VWS V14.01,2013-06-08 09:01:00,
2013-06-08 04:07:00,62.1,59.1,25.46,ENE,76,0.0,0.0,90,0.00,,SKC,0.00,VWS V14.01,2013-06-08 09:07:00,
2013-06-08 04:13:00,61.9,59.2,25.46,ENE,76,0.0,0.0,91,0.00,,SKC,0.00,VWS V14.01,2013-06-08 09:13:00,
2013-06-08 04:19:00,61.6,58.6,25.46,ENE,76,0.0,0.0,90,0.00,,SKC,0.00,VWS V14.01,2013-06-08 09:19:00,
2013-06-08 04:25:00,61.4,58.8,25.46,ENE,76,0.0,0.0,91,0.00,,SKC,0.00,VWS V14.01,2013-06-08 09:25:00,
2013-06-08 04:30:00,61.3,58.7,25.46,ENE,76,0.0,0.0,91,0.00,,SKC,0.00,VWS V14.01,2013-06-08 09:30:00,
2013-06-08 04:31:00,61.3,58.7,25.46,ENE,76,0.0,0.0,91,0.00,,SKC,0.00,VWS V14.01,2013-06-08 09:31:00,
2013-06-08 04:37:00,61.3,58.7,25.46,ENE,76,0.0,0.0,91,0.00,,SKC,0.00,VWS V14.01,2013-06-08 09:37:00,
2013-06-08 04:43:00,61.1,58.5,25.46,ENE,76,0.0,0.0,91,0.00,,SKC,0.00,VWS V14.01,2013-06-08 09:43:00,
2013-06-08 04:49:00,61.3,58.7,25.46,ENE,76,0.0,0.0,91,0.00,,SKC,0.00,VWS V14.01,2013-06-08 09:49:00,
2013-06-08 04:55:00,61.3,58.7,25.46,ENE,76,0.0,0.0,91,0.00,,SKC,0.00,VWS V14.01,2013-06-08 09:55:00,
2013-06-08 05:00:00,61.3,58.7,25.46,ENE,76,0.0,0.0,91,0.00,,SKC,0.00,VWS V14.01,2013-06-08 10:00:00,
2013-06-08 05:01:00,61.3,58.7,25.46,ENE,76,0.0,0.0,91,0.00,,SKC,0.00,VWS V14.01,2013-06-08 10:01:00,
2013-06-08 05:07:00,61.2,58.6,25.46,ENE,76,0.0,0.0,91,0.00,,SKC,0.00,VWS V14.01,2013-06-08 10:07:00,
2013-06-08 05:13:00,61.2,58.6,25.46,ENE,76,0.0,0.0,91,0.00,,SKC,0.00,VWS V14.01,2013-06-08 10:13:00,
2013-06-08 05:20:00,61.3,58.7,25.46,ENE,76,1.0,1.0,91,0.00,,SKC,0.00,VWS V14.01,2013-06-08 10:20:00,
2013-06-08 05:26:00,61.6,59.3,25.46,ENE,76,0.0,1.0,92,0.00,,SKC,0.00,VWS V14.01,2013-06-08 10:26:00,
2013-06-08 05:30:00,61.8,59.2,25.46,ENE,76,0.0,1.0,91,0.00,,SKC,0.00,VWS V14.01,2013-06-08 10:30:00,
2013-06-08 05:31:00,61.8,59.2,25.46,ENE,76,0.0,1.0,91,0.00,,SKC,0.00,VWS V14.01,2013-06-08 10:31:00,
2013-06-08 05:38:00,61.8,59.2,25.46,ENE,76,0.0,1.0,91,0.00,,SKC,0.00,VWS V14.01,2013-06-08 10:38:00,
2013-06-08 05:44:00,61.9,59.2,25.46,ENE,76,0.0,1.0,91,0.00,,SKC,0.00,VWS V14.01,2013-06-08 10:44:00,
2013-06-08 05:50:00,61.9,58.9,25.46,ENE,76,0.0,1.0,90,0.00,,SKC,0.00,VWS V14.01,2013-06-08 10:50:00,
2013-06-08 05:56:00,61.9,59.5,25.46,ENE,76,0.0,1.0,92,0.00,,SKC,0.00,VWS V14.01,2013-06-08 10:56:00,
2013-06-08 06:00:00,61.8,58.8,25.46,ENE,76,0.0,1.0,90,0.00,,SKC,0.00,VWS V14.01,2013-06-08 11:00:00,
2013-06-08 06:01:00,61.8,58.8,25.46,ENE,76,0.0,1.0,90,0.00,,SKC,0.00,VWS V14.01,2013-06-08 11:01:00,
2013-06-08 06:08:00,61.8,58.8,25.46,ENE,76,0.0,0.0,90,0.00,,SKC,0.00,VWS V14.01,2013-06-08 11:08:00,
2013-06-08 06:14:00,61.7,58.7,25.46,ENE,76,0.0,0.0,90,0.00,,SKC,0.00,VWS V14.01,2013-06-08 11:14:00,
2013-06-08 06:20:00,61.7,58.7,25.46,ENE,76,0.0,0.0,90,0.00,,SKC,0.00,VWS V14.01,2013-06-08 11:20:00,
2013-06-08 06:26:00,61.6,58.6,25.46,ENE,76,0.0,0.0,90,0.00,,SKC,0.00,VWS V14.01,2013-06-08 11:26:00,
2013-06-08 06:30:00,61.5,58.5,25.46,ENE,76,0.0,0.0,90,0.00,,SKC,0.00,VWS V14.01,2013-06-08 11:30:00,
2013-06-08 06:31:00,61.5,58.5,25.46,ENE,76,0.0,0.0,90,0.00,,SKC,0.00,VWS V14.01,2013-06-08 11:31:00,
2013-06-08 06:38:00,61.4,58.8,25.46,ENE,76,0.0,0.0,91,0.00,,SKC,0.00,VWS V14.01,2013-06-08 11:38:00,
2013-06-08 06:44:00,61.8,59.2,25.46,ENE,76,0.0,0.0,91,0.00,,SKC,0.00,VWS V14.01,2013-06-08 11:44:00,
2013-06-08 06:50:00,62.1,59.5,25.46,ENE,76,0.0,0.0,91,0.00,,SKC,0.00,VWS V14.01,2013-06-08 11:50:00,
2013-06-08 06:56:00,62.5,60.2,25.46,ENE,76,0.0,1.0,92,0.00,,SKC,0.00,VWS V14.01,2013-06-08 11:56:00,
2013-06-08 07:00:00,62.7,60.0,25.46,ENE,76,0.0,1.0,91,0.00,,SKC,0.00,VWS V14.01,2013-06-08 12:00:00,
2013-06-08 07:01:00,62.7,60.0,25.46,ENE,76,0.0,1.0,91,0.00,,SKC,0.00,VWS V14.01,2013-06-08 12:01:00,
2013-06-08 07:08:00,63.6,61.2,25.46,ENE,76,1.0,1.0,92,0.00,,SKC,0.00,VWS V14.01,2013-06-08 12:08:00,
2013-06-08 07:14:00,64.0,61.0,25.46,ENE,76,1.0,1.0,90,0.00,,SKC,0.00,VWS V14.01,2013-06-08 12:14:00,
2013-06-08 07:20:00,64.6,61.3,25.46,ENE,76,0.0,1.0,89,0.00,,SKC,0.00,VWS V14.01,2013-06-08 12:20:00,
2013-06-08 07:30:00,61.5,58.5,25.46,ENE,76,0.0,0.0,90,0.00,,SKC,0.00,VWS V14.01,2013-06-08 12:30:00,
2013-06-08 07:49:00,69.1,63.4,25.46,ENE,76,0.0,1.0,82,0.00,,SKC,0.00,VWS V14.01,2013-06-08 12:49:00,
2013-06-08 07:55:00,69.9,63.8,25.46,ENE,76,0.0,1.0,81,0.00,,SKC,0.00,VWS V14.01,2013-06-08 12:55:00,
2013-06-08 08:00:00,62.7,60.0,25.46,ENE,76,0.0,1.0,91,0.00,,SKC,0.00,VWS V14.01,2013-06-08 13:00:00,
2013-06-08 08:01:00,70.5,64.0,25.46,ENE,76,1.0,1.0,80,0.00,,SKC,0.00,VWS V14.01,2013-06-08 13:01:00,
2013-06-08 08:07:00,70.6,63.8,25.46,SE,126,2.0,3.0,79,0.00,,SKC,0.00,VWS V14.01,2013-06-08 13:07:00,
2013-06-08 08:13:00,70.6,63.4,25.46,SSW,205,1.0,3.0,78,0.00,,SKC,0.00,VWS V14.01,2013-06-08 13:13:00,
2013-06-08 08:19:00,71.0,63.8,25.46,SE,132,2.0,4.0,78,0.00,,SKC,0.00,VWS V14.01,2013-06-08 13:19:00,
2013-06-08 08:25:00,71.6,64.0,25.46,SE,132,1.0,4.0,77,0.00,,SKC,0.00,VWS V14.01,2013-06-08 13:25:00,
2013-06-08 08:30:00,72.1,63.8,25.46,ESE,108,2.0,4.0,75,0.00,,SKC,0.00,VWS V14.01,2013-06-08 13:30:00,
2013-06-08 08:31:00,72.1,63.8,25.46,ESE,108,2.0,4.0,75,0.00,,SKC,0.00,VWS V14.01,2013-06-08 13:31:00,
2013-06-08 08:37:00,72.4,63.7,25.46,SSE,150,3.0,4.0,74,0.00,,SKC,0.00,VWS V14.01,2013-06-08 13:37:00,
2013-06-08 08:43:00,72.9,63.3,25.46,ESE,107,3.0,7.0,72,0.00,,SKC,0.00,VWS V14.01,2013-06-08 13:43:00,
2013-06-08 08:49:00,73.3,62.9,25.46,East,101,2.0,7.0,70,0.00,,SKC,0.00,VWS V14.01,2013-06-08 13:49:00,
2013-06-08 08:55:00,73.8,63.4,25.46,SSW,192,3.0,7.0,70,0.00,,SKC,0.00,VWS V14.01,2013-06-08 13:55:00,
2013-06-08 09:00:00,70.5,64.0,25.46,ENE,76,1.0,1.0,80,0.00,,SKC,0.00,VWS V14.01,2013-06-08 14:00:00,
2013-06-08 09:01:00,74.2,63.4,25.46,SE,134,4.0,7.0,69,0.00,,SKC,0.00,VWS V14.01,2013-06-08 14:01:00,
2013-06-08 09:07:00,74.6,62.5,25.46,South,190,3.0,6.0,66,0.00,,SKC,0.00,VWS V14.01,2013-06-08 14:07:00,
2013-06-08 09:13:00,75.0,63.3,25.46,SSW,195,3.0,6.0,67,0.00,,SKC,0.00,VWS V14.01,2013-06-08 14:13:00,
2013-06-08 09:19:00,75.4,62.8,25.46,SSW,193,2.0,7.0,65,0.00,,SKC,0.00,VWS V14.01,2013-06-08 14:19:00,
2013-06-08 09:25:00,75.7,63.1,25.46,South,183,2.0,7.0,65,0.00,,SKC,0.00,VWS V14.01,2013-06-08 14:25:00,
2013-06-08 09:30:00,72.1,63.8,25.46,ESE,108,2.0,4.0,75,0.00,,SKC,0.00,VWS V14.01,2013-06-08 14:30:00,
2013-06-08 09:31:00,76.0,62.5,25.46,SSE,165,5.0,7.0,63,0.00,,SKC,0.00,VWS V14.01,2013-06-08 14:31:00,
2013-06-08 09:37:00,76.3,61.9,25.46,South,189,5.0,7.0,61,0.00,,SKC,0.00,VWS V14.01,2013-06-08 14:37:00,
2013-06-08 09:43:00,76.5,62.1,25.46,ESE,119,3.0,7.0,61,0.00,,SKC,0.00,VWS V14.01,2013-06-08 14:43:00,
2013-06-08 09:49:00,77.0,63.5,25.46,SE,135,4.0,8.0,63,0.00,,SKC,0.00,VWS V14.01,2013-06-08 14:49:00,
2013-06-08 09:55:00,77.2,61.3,25.46,SSW,205,4.0,8.0,58,0.00,,SKC,0.00,VWS V14.01,2013-06-08 14:55:00,
2013-06-08 10:00:00,74.2,63.4,25.46,SE,134,4.0,7.0,69,0.00,,SKC,0.00,VWS V14.01,2013-06-08 15:00:00,
2013-06-08 10:01:00,77.4,60.5,25.46,SE,130,6.0,7.0,56,0.00,,SKC,0.00,VWS V14.01,2013-06-08 15:01:00,
2013-06-08 10:07:00,77.6,60.7,25.46,SSE,168,2.0,8.0,56,0.00,,SKC,0.00,VWS V14.01,2013-06-08 15:07:00,
2013-06-08 10:13:00,78.1,61.6,25.46,SSW,198,3.0,8.0,57,0.00,,SKC,0.00,VWS V14.01,2013-06-08 15:13:00,
2013-06-08 10:20:00,78.2,60.2,25.46,SSE,168,2.0,8.0,54,0.00,,SKC,0.00,VWS V14.01,2013-06-08 15:20:00,
2013-06-08 10:26:00,78.2,60.2,25.46,SE,144,3.0,8.0,54,0.00,,SKC,0.00,VWS V14.01,2013-06-08 15:26:00,
2013-06-08 10:30:00,76.0,62.5,25.46,SSE,165,5.0,7.0,63,0.00,,SKC,0.00,VWS V14.01,2013-06-08 15:30:00,
2013-06-08 10:31:00,78.7,61.2,25.46,South,185,1.0,8.0,55,0.00,,SKC,0.00,VWS V14.01,2013-06-08 15:31:00,
2013-06-08 10:38:00,78.8,60.2,25.46,SSE,155,0.0,8.0,53,0.00,,SKC,0.00,VWS V14.01,2013-06-08 15:38:00,
2013-06-08 10:44:00,78.9,59.2,25.46,South,188,5.0,9.0,51,0.00,,SKC,0.00,VWS V14.01,2013-06-08 15:44:00,
2013-06-08 10:50:00,78.7,60.7,25.46,SW,215,4.0,11.0,54,0.00,,SKC,0.00,VWS V14.01,2013-06-08 15:50:00,
2013-06-08 10:56:00,79.1,59.4,25.46,SSW,213,6.0,12.0,51,0.00,,SKC,0.00,VWS V14.01,2013-06-08 15:56:00,
2013-06-08 11:00:00,77.4,60.5,25.46,SSW,201,7.0,9.0,56,0.00,,SKC,0.00,VWS V14.01,2013-06-08 16:00:00,
2013-06-08 11:01:00,79.0,59.3,25.46,SSE,160,4.0,12.0,51,0.00,,SKC,0.00,VWS V14.01,2013-06-08 16:01:00,
2013-06-08 11:08:00,79.2,59.5,25.46,ESE,116,7.0,9.0,51,0.00,,SKC,0.00,VWS V14.01,2013-06-08 16:08:00,
2013-06-08 11:14:00,79.6,59.9,25.46,SW,217,5.0,11.0,51,0.00,,SKC,0.00,VWS V14.01,2013-06-08 16:14:00,
2013-06-08 11:20:00,79.6,59.3,25.46,SSW,192,2.0,12.0,50,0.00,,SKC,0.00,VWS V14.01,2013-06-08 16:20:00,
2013-06-08 11:26:00,79.9,59.0,25.46,SE,135,7.0,12.0,49,0.00,,SKC,0.00,VWS V14.01,2013-06-08 16:26:00,
2013-06-08 11:30:00,78.7,61.2,25.46,South,185,1.0,8.0,55,0.00,,SKC,0.00,VWS V14.01,2013-06-08 16:30:00,
2013-06-08 11:31:00,79.9,60.2,25.46,South,190,6.0,12.0,51,0.00,,SKC,0.00,VWS V14.01,2013-06-08 16:31:00,
2013-06-08 11:38:00,80.2,60.5,25.46,South,171,4.0,10.0,51,0.00,,SKC,0.00,VWS V14.01,2013-06-08 16:38:00,
2013-06-08 11:44:00,80.5,57.2,25.46,ESE,102,7.0,10.0,45,0.00,,SKC,0.00,VWS V14.01,2013-06-08 16:44:00,
2013-06-08 11:50:00,80.6,59.1,25.46,East,101,9.0,10.0,48,0.00,,SKC,0.00,VWS V14.01,2013-06-08 16:50:00,
2013-06-08 11:56:00,80.8,59.9,25.46,SW,215,9.0,10.0,49,0.00,,SKC,0.00,VWS V14.01,2013-06-08 16:56:00,
2013-06-08 12:00:00,79.0,59.3,25.46,SSE,160,4.0,12.0,51,0.00,,SKC,0.00,VWS V14.01,2013-06-08 17:00:00,
2013-06-08 12:01:00,81.2,59.7,25.46,South,175,8.0,10.0,48,0.00,,SKC,0.00,VWS V14.01,2013-06-08 17:01:00,
2013-06-08 12:08:00,81.1,61.3,25.46,South,182,10.0,12.0,51,0.00,,SKC,0.00,VWS V14.01,2013-06-08 17:08:00,
2013-06-08 12:14:00,81.1,61.3,25.46,South,190,4.0,12.0,51,0.00,,SKC,0.00,VWS V14.01,2013-06-08 17:14:00,
2013-06-08 12:20:00,81.6,62.8,25.46,SW,229,6.0,12.0,53,0.00,,SKC,0.00,VWS V14.01,2013-06-08 17:20:00,
2013-06-08 12:26:00,81.6,61.7,25.46,SSW,201,8.0,12.0,51,0.00,,SKC,0.00,VWS V14.01,2013-06-08 17:26:00,
2013-06-08 12:30:00,79.9,60.2,25.46,South,190,6.0,12.0,51,0.00,,SKC,0.00,VWS V14.01,2013-06-08 17:30:00,
2013-06-08 12:32:00,81.4,62.1,25.46,South,180,9.0,9.0,52,0.00,,SKC,0.00,VWS V14.01,2013-06-08 17:32:00,
2013-06-08 12:38:00,81.8,62.5,25.46,SSE,153,4.0,10.0,52,0.00,,SKC,0.00,VWS V14.01,2013-06-08 17:38:00,
2013-06-08 12:44:00,82.0,61.0,25.46,SE,128,2.0,10.0,49,0.00,,SKC,0.00,VWS V14.01,2013-06-08 17:44:00,
2013-06-08 12:50:00,82.5,63.1,25.46,SSW,194,7.0,10.0,52,0.00,,SKC,0.00,VWS V14.01,2013-06-08 17:50:00,
2013-06-08 12:56:00,82.3,62.9,25.46,SE,126,5.0,12.0,52,0.00,,SKC,0.00,VWS V14.01,2013-06-08 17:56:00,
2013-06-08 13:00:00,81.2,59.7,25.46,South,175,8.0,10.0,48,0.00,,SKC,0.00,VWS V14.01,2013-06-08 18:00:00,
2013-06-08 13:01:00,82.4,62.5,25.46,ESE,121,4.0,12.0,51,0.00,,SKC,0.00,VWS V14.01,2013-06-08 18:01:00,
2013-06-08 13:08:00,82.6,63.8,25.46,SSE,163,6.0,9.0,53,0.00,,SKC,0.00,VWS V14.01,2013-06-08 18:08:00,
2013-06-08 13:14:00,82.6,63.2,25.46,South,185,2.0,9.0,52,0.00,,SKC,0.00,VWS V14.01,2013-06-08 18:14:00,
2013-06-08 13:20:00,82.8,64.5,25.46,ESE,104,5.0,9.0,54,0.00,,SKC,0.00,VWS V14.01,2013-06-08 18:20:00,
2013-06-08 13:26:00,83.1,63.1,25.46,SSW,208,4.0,12.0,51,0.00,,SKC,0.00,VWS V14.01,2013-06-08 18:26:00,
2013-06-08 13:30:00,81.4,62.1,25.46,SSE,165,6.0,13.0,52,0.00,,SKC,0.00,VWS V14.01,2013-06-08 18:30:00,
2013-06-08 13:31:00,83.1,63.1,25.46,ESE,119,7.0,12.0,51,0.00,,SKC,0.00,VWS V14.01,2013-06-08 18:31:00,
2013-06-08 13:38:00,83.2,63.2,25.46,ESE,105,2.0,11.0,51,0.00,,SKC,0.00,VWS V14.01,2013-06-08 18:38:00,
2013-06-08 13:44:00,83.5,64.0,25.46,SSW,201,6.0,11.0,52,0.00,,SKC,0.00,VWS V14.01,2013-06-08 18:44:00,
2013-06-08 13:50:00,83.6,63.6,25.46,WSW,246,5.0,11.0,51,0.00,,SKC,0.00,VWS V14.01,2013-06-08 18:50:00,
2013-06-08 13:56:00,83.7,63.1,25.46,ENE,67,4.0,11.0,50,0.00,,SKC,0.00,VWS V14.01,2013-06-08 18:56:00,
2013-06-08 14:00:00,82.4,62.5,25.46,ESE,121,4.0,12.0,51,0.00,,SKC,0.00,VWS V14.01,2013-06-08 19:00:00,
2013-06-08 14:02:00,84.0,63.4,25.46,SSW,197,4.0,7.0,50,0.00,,SKC,0.00,VWS V14.01,2013-06-08 19:02:00,
2013-06-08 14:08:00,84.1,64.0,25.46,South,186,7.0,9.0,51,0.00,,SKC,0.00,VWS V14.01,2013-06-08 19:08:00,
2013-06-08 14:14:00,84.2,64.1,25.46,SE,129,7.0,11.0,51,0.00,,SKC,0.00,VWS V14.01,2013-06-08 19:14:00,
2013-06-08 14:20:00,84.4,63.8,25.46,SSW,205,7.0,11.0,50,0.00,,SKC,0.00,VWS V14.01,2013-06-08 19:20:00,
2013-06-08 14:26:00,84.7,62.9,25.46,SSW,205,5.0,11.0,48,0.00,,SKC,0.00,VWS V14.01,2013-06-08 19:26:00,
2013-06-08 14:30:00,83.1,63.1,25.46,ESE,119,7.0,12.0,51,0.00,,SKC,0.00,VWS V14.01,2013-06-08 19:30:00,
2013-06-08 14:33:00,84.9,63.6,25.46,SSW,192,4.0,9.0,49,0.00,,SKC,0.00,VWS V14.01,2013-06-08 19:33:00,
2013-06-08 14:39:00,84.9,61.8,25.46,SE,140,4.0,9.0,46,0.00,,SKC,0.00,VWS V14.01,2013-06-08 19:39:00,
2013-06-08 14:45:00,85.0,62.5,25.46,SSE,157,1.0,9.0,47,0.00,,SKC,0.00,VWS V14.01,2013-06-08 19:45:00,
2013-06-08 14:51:00,85.2,62.7,25.46,SSE,148,2.0,9.0,47,0.00,,SKC,0.00,VWS V14.01,2013-06-08 19:51:00,
2013-06-08 14:57:00,85.3,64.0,25.46,SE,125,7.0,10.0,49,0.00,,SKC,0.00,VWS V14.01,2013-06-08 19:57:00,
2013-06-08 15:00:00,83.9,63.3,25.46,South,169,5.0,11.0,50,0.00,,SKC,0.00,VWS V14.01,2013-06-08 20:00:00,
2013-06-08 15:03:00,85.4,64.1,25.46,SSW,208,2.0,6.0,49,0.00,,SKC,0.00,VWS V14.01,2013-06-08 20:03:00,
2013-06-08 15:09:00,85.7,64.4,25.46,SSW,198,5.0,7.0,49,0.00,,SKC,0.00,VWS V14.01,2013-06-08 20:09:00,
2013-06-08 15:15:00,85.4,64.1,25.46,West,259,4.0,10.0,49,0.00,,SKC,0.00,VWS V14.01,2013-06-08 20:15:00,
2013-06-08 15:21:00,85.3,64.0,25.46,South,188,2.0,10.0,49,0.00,,SKC,0.00,VWS V14.01,2013-06-08 20:21:00,
2013-06-08 15:27:00,85.4,64.1,25.46,South,190,4.0,10.0,49,0.00,,SKC,0.00,VWS V14.01,2013-06-08 20:27:00,
2013-06-08 15:30:00,84.8,63.0,25.46,SE,128,3.0,12.0,48,0.00,,SKC,0.00,VWS V14.01,2013-06-08 20:30:00,
2013-06-08 15:33:00,85.6,63.7,25.46,SSW,209,3.0,6.0,48,0.00,,SKC,0.00,VWS V14.01,2013-06-08 20:33:00,
2013-06-08 15:39:00,86.0,64.0,25.46,SE,128,3.0,7.0,48,0.00,,SKC,0.00,VWS V14.01,2013-06-08 20:39:00,
2013-06-08 15:45:00,85.8,64.4,25.46,SSW,207,4.0,8.0,49,0.00,,SKC,0.00,VWS V14.01,2013-06-08 20:45:00,
2013-06-08 15:54:00,86.3,64.3,25.46,SW,222,3.0,8.0,48,0.00,,SKC,0.00,VWS V14.01,2013-06-08 20:54:00,
2013-06-08 16:00:00,86.6,65.8,25.46,SSW,200,4.0,8.0,50,0.00,,SKC,0.00,VWS V14.01,2013-06-08 21:00:00,
2013-06-08 16:06:00,86.1,65.3,25.46,SSW,205,1.0,7.0,50,0.00,,SKC,0.00,VWS V14.01,2013-06-08 21:06:00,
2013-06-08 16:12:00,85.3,65.1,25.46,SSW,210,4.0,7.0,51,0.00,,SKC,0.00,VWS V14.01,2013-06-08 21:12:00,
2013-06-08 16:18:00,84.9,63.6,25.46,South,183,6.0,7.0,49,0.00,,SKC,0.00,VWS V14.01,2013-06-08 21:18:00,
2013-06-08 16:24:00,85.0,63.7,25.46,South,169,3.0,7.0,49,0.00,,SKC,0.00,VWS V14.01,2013-06-08 21:24:00,
2013-06-08 16:30:00,85.1,63.8,25.46,SSW,196,6.0,8.0,49,0.00,,SKC,0.00,VWS V14.01,2013-06-08 21:30:00,
2013-06-08 16:36:00,85.4,63.5,25.46,SE,139,2.0,6.0,48,0.00,,SKC,0.00,VWS V14.01,2013-06-08 21:36:00,
2013-06-08 16:42:00,85.8,64.4,25.46,South,177,2.0,7.0,49,0.00,,SKC,0.00,VWS V14.01,2013-06-08 21:42:00,
2013-06-08 16:48:00,86.3,66.1,25.46,South,189,4.0,7.0,51,0.00,,SKC,0.00,VWS V14.01,2013-06-08 21:48:00,
2013-06-08 16:55:00,86.3,64.3,25.46,South,174,1.0,8.0,48,0.00,,SKC,0.00,VWS V14.01,2013-06-08 21:55:00,
2013-06-08 17:00:00,86.5,64.5,25.46,SSW,211,3.0,8.0,48,0.00,,SKC,0.00,VWS V14.01,2013-06-08 22:00:00,
2013-06-08 17:01:00,86.2,64.2,25.46,South,169,2.0,8.0,48,0.00,,SKC,0.00,VWS V14.01,2013-06-08 22:01:00,
2013-06-08 17:07:00,85.8,63.9,25.46,SW,225,5.0,7.0,48,0.00,,SKC,0.00,VWS V14.01,2013-06-08 22:07:00,
2013-06-08 17:13:00,85.6,63.7,25.46,SSW,211,7.0,8.0,48,0.00,,SKC,0.00,VWS V14.01,2013-06-08 22:13:00,
2013-06-08 17:19:00,85.4,64.1,25.46,SE,132,0.0,8.0,49,0.00,,SKC,0.00,VWS V14.01,2013-06-08 22:19:00,
2013-06-08 17:25:00,85.7,64.9,25.46,SSW,196,3.0,8.0,50,0.00,,SKC,0.00,VWS V14.01,2013-06-08 22:25:00,
2013-06-08 17:30:00,85.1,63.2,25.46,South,186,4.0,8.0,48,0.00,,SKC,0.00,VWS V14.01,2013-06-08 22:30:00,
2013-06-08 17:31:00,86.0,65.2,25.46,SSE,166,4.0,8.0,50,0.00,,SKC,0.00,VWS V14.01,2013-06-08 22:31:00,
2013-06-08 17:37:00,85.9,62.7,25.46,South,181,3.0,9.0,46,0.00,,SKC,0.00,VWS V14.01,2013-06-08 22:37:00,
2013-06-08 17:43:00,85.6,64.3,25.46,SE,138,2.0,9.0,49,0.00,,SKC,0.00,VWS V14.01,2013-06-08 22:43:00,
2013-06-08 17:49:00,85.7,63.8,25.46,East,92,2.0,9.0,48,0.00,,SKC,0.00,VWS V14.01,2013-06-08 22:49:00,
2013-06-08 17:55:00,85.9,64.0,25.46,SSW,192,3.0,9.0,48,0.00,,SKC,0.00,VWS V14.01,2013-06-08 22:55:00,
2013-06-08 18:00:00,86.2,64.8,25.46,SW,214,6.0,8.0,49,0.00,,SKC,0.00,VWS V14.01,2013-06-08 23:00:00,
2013-06-08 18:01:00,85.7,64.4,25.46,SE,126,3.0,9.0,49,0.00,,SKC,0.00,VWS V14.01,2013-06-08 23:01:00,
2013-06-08 18:07:00,85.7,63.8,25.46,SE,143,3.0,8.0,48,0.00,,SKC,0.00,VWS V14.01,2013-06-08 23:07:00,
2013-06-08 18:13:00,85.9,63.3,25.46,East,84,2.0,8.0,47,0.00,,SKC,0.00,VWS V14.01,2013-06-08 23:13:00,
2013-06-08 18:19:00,86.1,64.1,25.46,SE,128,7.0,9.0,48,0.00,,SKC,0.00,VWS V14.01,2013-06-08 23:19:00,
2013-06-08 18:25:00,86.0,64.0,25.46,South,173,3.0,9.0,48,0.00,,SKC,0.00,VWS V14.01,2013-06-08 23:25:00,
2013-06-08 18:30:00,86.0,64.0,25.46,ESE,119,3.0,8.0,48,0.00,,SKC,0.00,VWS V14.01,2013-06-08 23:30:00,
2013-06-08 18:31:00,86.0,64.0,25.46,ENE,76,5.0,9.0,48,0.00,,SKC,0.00,VWS V14.01,2013-06-08 23:31:00,
2013-06-08 18:37:00,85.8,64.4,25.46,SE,133,3.0,8.0,49,0.00,,SKC,0.00,VWS V14.01,2013-06-08 23:37:00,
2013-06-08 18:43:00,85.6,63.7,25.46,SE,125,4.0,8.0,48,0.00,,SKC,0.00,VWS V14.01,2013-06-08 23:43:00,
2013-06-08 18:49:00,85.2,64.5,25.46,SE,132,4.0,9.0,50,0.00,,SKC,0.00,VWS V14.01,2013-06-08 23:49:00,
2013-06-08 18:55:00,84.6,64.5,25.46,SE,132,3.0,9.0,51,0.00,,SKC,0.00,VWS V14.01,2013-06-08 23:55:00,
2013-06-08 19:00:00,85.7,64.4,25.46,East,94,8.0,9.0,49,0.00,,SKC,0.00,VWS V14.01,2013-06-09 00:00:00,
2013-06-08 19:01:00,84.2,64.7,25.46,ESE,114,3.0,9.0,52,0.00,,SKC,0.00,VWS V14.01,2013-06-09 00:01:00,
2013-06-08 19:07:00,83.8,64.9,25.46,SSE,147,0.0,3.0,53,0.00,,SKC,0.00,VWS V14.01,2013-06-09 00:07:00,
2013-06-08 19:13:00,83.5,64.6,25.46,SSE,154,1.0,6.0,53,0.00,,SKC,0.00,VWS V14.01,2013-06-09 00:13:00,
2013-06-08 19:19:00,83.2,64.8,25.46,SE,124,3.0,7.0,54,0.00,,SKC,0.00,VWS V14.01,2013-06-09 00:19:00,
2013-06-08 19:25:00,83.0,65.2,25.46,ESE,117,3.0,7.0,55,0.00,,SKC,0.00,VWS V14.01,2013-06-09 00:25:00,
2013-06-08 19:30:00,86.0,64.0,25.46,SE,141,3.0,9.0,48,0.00,,SKC,0.00,VWS V14.01,2013-06-09 00:30:00,
2013-06-08 19:31:00,82.8,65.5,25.46,SE,125,2.0,7.0,56,0.00,,SKC,0.00,VWS V14.01,2013-06-09 00:31:00,
2013-06-08 19:37:00,82.4,65.1,25.46,SE,140,3.0,5.0,56,0.00,,SKC,0.00,VWS V14.01,2013-06-09 00:37:00,
2013-06-08 19:43:00,82.5,64.2,25.46,ESE,113,4.0,6.0,54,0.00,,SKC,0.00,VWS V14.01,2013-06-09 00:43:00,
2013-06-08 19:49:00,82.4,64.1,25.46,SE,126,0.0,6.0,54,0.00,,SKC,0.00,VWS V14.01,2013-06-09 00:49:00,
2013-06-08 19:55:00,82.2,63.9,25.46,SSE,155,2.0,6.0,54,0.00,,SKC,0.00,VWS V14.01,2013-06-09 00:55:00,
2013-06-08 20:00:00,84.2,64.7,25.46,SE,142,0.0,9.0,52,0.00,,SKC,0.00,VWS V14.01,2013-06-09 01:00:00,
2013-06-08 20:01:00,82.0,64.3,25.46,ESE,105,1.0,6.0,55,0.00,,SKC,0.00,VWS V14.01,2013-06-09 01:01:00,
2013-06-08 20:07:00,81.6,64.4,25.46,ESE,113,1.0,4.0,56,0.00,,SKC,0.00,VWS V14.01,2013-06-09 01:07:00,
2013-06-08 20:13:00,81.2,64.5,25.46,ESE,121,1.0,5.0,57,0.00,,SKC,0.00,VWS V14.01,2013-06-09 01:13:00,
2013-06-08 20:19:00,80.7,64.6,25.46,SE,134,2.0,5.0,58,0.00,,SKC,0.00,VWS V14.01,2013-06-09 01:19:00,
2013-06-08 20:25:00,80.3,64.7,25.46,SE,130,1.0,5.0,59,0.00,,SKC,0.00,VWS V14.01,2013-06-09 01:25:00,
2013-06-08 20:30:00,79.9,64.3,25.46,ESE,116,1.0,6.0,59,0.00,,SKC,0.00,VWS V14.01,2013-06-09 01:30:00,
2013-06-08 20:31:00,79.9,64.3,25.46,ESE,116,1.0,6.0,59,0.00,,SKC,0.00,VWS V14.01,2013-06-09 01:31:00,
2013-06-08 20:37:00,79.5,63.9,25.46,South,171,1.0,6.0,59,0.00,,SKC,0.00,VWS V14.01,2013-06-09 01:37:00,
2013-06-08 20:43:00,79.3,63.7,25.46,SSE,150,2.0,7.0,59,0.00,,SKC,0.00,VWS V14.01,2013-06-09 01:43:00,
2013-06-08 20:49:00,79.1,63.6,25.46,East,90,6.0,9.0,59,0.00,,SKC,0.00,VWS V14.01,2013-06-09 01:49:00,
2013-06-08 20:55:00,78.8,63.8,25.46,ESE,123,4.0,9.0,60,0.00,,SKC,0.00,VWS V14.01,2013-06-09 01:55:00,
2013-06-08 21:00:00,82.0,64.3,25.46,ESE,105,1.0,6.0,55,0.00,,SKC,0.00,VWS V14.01,2013-06-09 02:00:00,
2013-06-08 21:01:00,78.6,64.0,25.46,SE,137,5.0,9.0,61,0.00,,SKC,0.00,VWS V14.01,2013-06-09 02:01:00,
2013-06-08 21:07:00,78.4,63.8,25.46,SSE,149,2.0,6.0,61,0.00,,SKC,0.00,VWS V14.01,2013-06-09 02:07:00,
2013-06-08 21:13:00,78.1,64.0,25.46,SE,132,1.0,6.0,62,0.00,,SKC,0.00,VWS V14.01,2013-06-09 02:13:00,
2013-06-08 21:19:00,77.9,63.8,25.46,SE,135,4.0,6.0,62,0.00,,SKC,0.00,VWS V14.01,2013-06-09 02:19:00,
2013-06-08 21:25:00,77.7,63.7,25.46,SE,137,2.0,6.0,62,0.00,,SKC,0.00,VWS V14.01,2013-06-09 02:25:00,
2013-06-08 21:30:00,79.9,64.3,25.46,ESE,116,1.0,6.0,59,0.00,,SKC,0.00,VWS V14.01,2013-06-09 02:30:00,
2013-06-08 21:31:00,77.6,64.0,25.46,East,87,3.0,6.0,63,0.00,,SKC,0.00,VWS V14.01,2013-06-09 02:31:00,
2013-06-08 21:37:00,77.4,63.8,25.46,ESE,113,3.0,5.0,63,0.00,,SKC,0.00,VWS V14.01,2013-06-09 02:37:00,
2013-06-08 21:43:00,77.3,63.7,25.46,SE,132,2.0,5.0,63,0.00,,SKC,0.00,VWS V14.01,2013-06-09 02:43:00,
2013-06-08 21:50:00,77.2,63.6,25.46,East,101,3.0,5.0,63,0.00,,SKC,0.00,VWS V14.01,2013-06-09 02:50:00,
2013-06-08 21:56:00,77.0,63.9,25.46,East,90,2.0,5.0,64,0.00,,SKC,0.00,VWS V14.01,2013-06-09 02:56:00,
2013-06-08 22:00:00,78.6,64.0,25.46,SE,137,5.0,9.0,61,0.00,,SKC,0.00,VWS V14.01,2013-06-09 03:00:00,
2013-06-08 22:01:00,76.7,64.1,25.46,East,101,2.0,5.0,65,0.00,,SKC,0.00,VWS V14.01,2013-06-09 03:01:00,
2013-06-08 22:08:00,76.4,63.8,25.46,SE,143,2.0,5.0,65,0.00,,SKC,0.00,VWS V14.01,2013-06-09 03:08:00,
2013-06-08 22:14:00,76.3,64.1,25.46,East,94,6.0,6.0,66,0.00,,SKC,0.00,VWS V14.01,2013-06-09 03:14:00,
2013-06-08 22:20:00,76.2,64.0,25.46,SSE,159,1.0,6.0,66,0.00,,SKC,0.00,VWS V14.01,2013-06-09 03:20:00,
2013-06-08 22:26:00,76.2,64.0,25.46,SE,126,4.0,6.0,66,0.00,,SKC,0.00,VWS V14.01,2013-06-09 03:26:00,
2013-06-08 22:30:00,77.6,64.0,25.46,East,87,3.0,6.0,63,0.00,,SKC,0.00,VWS V14.01,2013-06-09 03:30:00,
2013-06-08 22:31:00,76.1,64.4,25.46,ESE,119,3.0,6.0,67,0.00,,SKC,0.00,VWS V14.01,2013-06-09 03:31:00,
2013-06-08 22:38:00,75.9,64.2,25.46,ESE,107,3.0,7.0,67,0.00,,SKC,0.00,VWS V14.01,2013-06-09 03:38:00,
2013-06-08 22:44:00,75.8,64.1,25.46,East,90,6.0,7.0,67,0.00,,SKC,0.00,VWS V14.01,2013-06-09 03:44:00,
2013-06-08 22:50:00,75.8,64.1,25.46,SE,130,2.0,7.0,67,0.00,,SKC,0.00,VWS V14.01,2013-06-09 03:50:00,
2013-06-08 22:56:00,75.9,64.2,25.46,ESE,117,4.0,8.0,67,0.00,,SKC,0.00,VWS V14.01,2013-06-09 03:56:00,
2013-06-08 23:00:00,76.7,64.1,25.46,East,101,2.0,5.0,65,0.00,,SKC,0.00,VWS V14.01,2013-06-09 04:00:00,
2013-06-08 23:01:00,75.8,64.5,25.46,SSE,150,3.0,8.0,68,0.00,,SKC,0.00,VWS V14.01,2013-06-09 04:01:00,
2013-06-08 23:02:00,75.8,64.1,25.46,SE,124,5.0,5.0,67,0.00,,SKC,0.00,VWS V14.01,2013-06-09 04:02:00,
2013-06-08 23:08:00,75.7,64.4,25.46,SSE,148,4.0,9.0,68,0.00,,SKC,0.00,VWS V14.01,2013-06-09 04:08:00,
2013-06-08 23:11:00,75.6,64.3,25.46,SSE,167,5.0,9.0,68,0.00,,SKC,0.00,VWS V14.01,2013-06-09 04:11:00,
2013-06-08 23:14:00,75.6,64.3,25.46,ESE,111,7.0,9.0,68,0.00,,SKC,0.00,VWS V14.01,2013-06-09 04:14:00,
2013-06-08 23:20:00,75.4,64.1,25.46,SE,139,5.0,9.0,68,0.00,,SKC,0.00,VWS V14.01,2013-06-09 04:20:00,
2013-06-08 23:26:00,75.3,64.4,25.46,SSE,148,4.0,9.0,69,0.00,,SKC,0.00,VWS V14.01,2013-06-09 04:26:00,
2013-06-08 23:30:00,76.1,64.4,25.46,ESE,119,3.0,6.0,67,0.00,,SKC,0.00,VWS V14.01,2013-06-09 04:30:00,
2013-06-08 23:31:00,75.1,64.2,25.46,SE,133,2.0,9.0,69,0.00,,SKC,0.00,VWS V14.01,2013-06-09 04:31:00,
2013-06-08 23:38:00,75.0,64.2,25.46,East,86,2.0,7.0,69,0.00,,SKC,0.00,VWS V14.01,2013-06-09 04:38:00,
2013-06-08 23:44:00,75.0,64.2,25.46,SE,128,3.0,7.0,69,0.00,,SKC,0.00,VWS V14.01,2013-06-09 04:44:00,
2013-06-08 23:50:00,75.0,64.2,25.46,ENE,78,1.0,7.0,69,0.00,,SKC,0.00,VWS V14.01,2013-06-09 04:50:00,
2013-06-08 23:56:00,75.0,64.2,25.46,SE,125,1.0,7.0,69,0.00,,SKC,0.00,VWS V14.01,2013-06-09 04:56:00,